Location: Dittelbrunn
(50.0738°N, 10.2196°E)
Time: 05:22:51
(UTC+00:00)

Cosmos 2151 Rocket - Pass Details

Date: 18 September 2020
Orbit: 618 x 642 km, 82.5° (Epoch: 20 October)

Event Time Altitude Azimuth Distance (km) Brightness Sun altitude
Rises 18:44:44 0° 172° (S) 2,902 6.7 -13.3°
Reaches altitude 10° 18:47:00 10° 166° (SSE) 2,004 5.9 -13.7°
Maximum altitude 18:51:15 47° 93° (E) 848 3.8 -14.3°
Drops below altitude 10° 18:55:34 10° 21° (NNE) 2,034 6.2 -15.0°
Sets 18:57:53 0° 15° (NNE) 2,951 7.1 -15.3°
